View from above orbital plane
|
View from above satellite
|
Ground track
|
The orbit data is extracted from the following two-line orbital elements,
1 18586U 87098B 21059.46679480 .00000065 00000-0 30758-4 0 9999
2 18586 74.0083 324.9460 0019940 60.7424 299.5719 14.36936094741285
Epoch (UTC): | 28 February 2021 11:12:11 |
Eccentricity: | 0.0019940 |
inclination: | 74.0083° |
perigee height: | 754 km |
apogee height: | 783 km |
right ascension of ascending node: | 324.9460° |
argument of perigee: | 60.7424° |
revolutions per day: | 14.36936094 |
mean anomaly at epoch: | 299.5719° |
orbit number at epoch: | 74128 |
The dashed part of the orbit path shows where the satellite is in the earth's shadow,
|
|